1499421600.24,25735,17.13,74266.5,7.43,3.63,-0.37,0,*64
1499421601.48,25736,17.13,74270.5,7.49,3.89,-0.23,0,*6C
1499421602.69,25737,17.13,74270.8,7.49,3.89,-0.19,0,*64
1499421603.9,25738,17.13,74270.5,7.51,3.79,-0.37,0,*61
1499421605.13,25739,17.13,74270.8,7.53,3.29,-0.85,0,*6E
1499421606.38,25740,17.13,74268.5,7.57,3.23,-0.85,0,*6E
1499421607.57,25741,17.13,74270.0,7.55,2.91,-1.25,0,*5E
1499421608.8,25742,17.13,74268.5,7.57,2.73,-1.33,0,*54
1499421610.06,25743,17.13,74268.0,7.57,3.07,-1.09,0,*5E
1499421611.29,25744,17.19,74268.8,7.59,2.73,-1.47,0,*5F
1499421612.52,25745,17.13,74268.5,7.59,2.73,-1.39,0,*57
1499421613.76,25746,17.13,74264.8,7.61,2.51,-1.67,0,*54
1499421614.99,25747,17.13,74264.5,7.61,2.35,-1.87,0,*59
1499421616.18,25748,17.13,74262.5,7.63,2.31,-1.71,0,*59
1499421617.42,25749,17.19,74260.8,7.63,2.17,-2.11,0,*59
1499421618.6,25750,17.13,74260.3,7.63,1.83,-2.35,0,*59
1499421619.83,25751,17.13,74260.5,7.63,1.67,-2.47,0,*57
1499421621.04,25752,17.13,74270.8,7.63,1.85,-2.27,0,*5E
1499421622.28,25753,17.13,74268.3,7.63,1.97,-2.11,0,*59
1499421623.51,25754,17.13,74268.3,7.65,1.93,-2.27,0,*59
1499421624.74,25755,17.13,74272.3,7.63,2.09,-1.99,0,*58
1499421625.96,25756,17.13,74268.0,7.65,2.31,-1.71,0,*50
1499421627.21,25757,17.13,74268.3,7.65,2.21,-1.83,0,*5D
1499421628.47,25758,17.13,74268.5,7.65,1.93,-2.11,0,*50
1499421629.74,25759,17.13,74264.0,7.65,1.55,-2.63,0,*5E
1499421630.99,25760,17.13,74266.0,7.65,1.71,-2.59,0,*5B
1499421632.25,25761,17.13,74264.5,7.65,1.47,-2.59,0,*5F
1499421633.52,25762,17.19,74264.3,7.65,1.37,-2.75,0,*55
1499421634.78,25763,17.13,74262.8,7.65,1.43,-2.75,0,*57
1499421635.99,25764,17.13,74268.5,7.65,1.83,-2.23,0,*5F
1499421637.22,25765,17.13,74264.3,7.67,2.09,-2.03,0,*5F
1499421638.43,25766,17.13,74258.8,7.71,1.63,-2.39,0,*5D
1499421639.61,25767,17.19,74264.8,7.67,1.05,-3.11,0,*50
1499421640.82,25768,17.13,74260.5,7.67,0.51,-3.67,0,*6E
1499421642.06,25769,17.19,74262.3,7.67,1.29,-2.71,0,*57
1499421643.25,25770,17.13,74260.0,7.67,1.75,-2.31,0,*52
1499421644.46,25771,17.13,74262.3,7.67,1.71,-2.19,0,*5D
1499421645.69,25772,17.13,74260.8,7.71,1.93,-2.11,0,*5D
1499421646.92,25773,17.19,74270.0,7.71,1.89,-2.03,0,*54
1499421648.13,25774,17.13,74264.8,7.71,2.13,-1.79,0,*5D
1499421649.33,25775,17.13,74256.5,7.71,2.13,-1.75,0,*50
1499421650.51,25776,17.13,74260.0,7.71,2.61,-1.29,0,*5F
1499421651.72,25777,17.13,74256.8,7.75,1.67,-2.23,0,*56
1499421652.95,25778,17.13,74256.8,7.73,0.91,-3.15,0,*63
1499421654.15,25779,17.13,74258.3,7.75,1.83,-2.11,0,*53
1499421655.36,25780,17.13,74254.5,7.75,1.93,-1.63,0,*52
1499421656.56,25781,17.19,74256.3,7.75,2.59,-1.25,0,*54
1499421657.8,25782,17.13,74260.0,7.75,1.37,-2.63,0,*5D
1499421659.01,25783,17.13,74266.0,7.75,2.05,-1.63,0,*5D
1499421660.19,25784,17.13,74260.5,7.79,2.91,-0.73,0,*6B
1499421661.37,25785,17.13,74262.3,7.79,3.29,-0.49,0,*61
1499421662.56,25786,17.13,74258.3,7.81,2.95,-0.77,0,*6E
1499421663.83,25787,17.13,74268.5,7.83,1.33,-2.55,0,*50
1499421665.06,25788,17.13,74268.0,7.83,1.63,-2.15,0,*5E
1499421666.27,25789,17.13,74260.8,7.83,2.27,-1.55,0,*5B
1499421667.5,25790,17.13,74260.8,7.85,2.77,-0.97,0,*6F
1499421668.73,25791,17.13,74256.3,7.87,3.11,-0.61,0,*64
1499421669.95,25792,17.13,74252.8,7.87,3.25,-0.41,0,*62
1499421671.18,25793,17.19,74254.8,7.95,3.79,0.05,0,*74
1499421672.41,25794,17.13,74254.5,7.95,3.07,-0.65,0,*61
1499421673.58,25795,17.19,74258.0,7.97,3.81,0.09,0,*7B
1499421674.81,25796,17.19,74260.8,7.99,3.93,0.25,0,*4B
1499421676.01,25797,17.13,74262.0,8.01,4.07,0.37,0,*4D
1499421677.2,25798,17.13,74262.3,8.05,4.33,0.67,0,*44
1499421678.42,25799,17.13,74262.5,8.07,4.37,0.63,0,*47
1499421679.65,25800,17.13,74266.0,8.09,3.53,-0.23,0,*6A
1499421680.82,25801,17.13,74266.0,8.15,3.55,-0.11,0,*61
1499421682.02,25802,17.13,74264.8,8.15,3.67,-0.07,0,*54
1499421683.23,25803,17.13,74270.3,8.19,4.07,0.37,0,*46
1499421684.45,25804,17.19,74272.5,8.21,3.89,0.25,0,*48
1499421685.65,25805,17.19,74272.5,8.23,3.15,-0.57,0,*66
1499421686.85,25806,17.13,74270.3,8.23,3.75,0.05,0,*79
1499421688.05,25807,17.13,74270.5,8.27,3.81,0.21,0,*41
1499421689.24,25808,17.19,74274.0,8.31,3.85,0.13,0,*4C
1499421690.46,25809,17.19,74270.8,8.31,2.77,-1.09,0,*56
1499421691.65,25810,17.19,74272.3,8.31,3.85,0.17,0,*41
1499421692.85,25811,17.13,74272.0,8.35,4.37,0.79,0,*42
1499421694.05,25812,17.13,74274.8,8.39,4.75,1.05,0,*71
1499421695.27,25813,17.19,74276.3,8.47,4.27,0.67,0,*4B
1499421696.5,25814,17.13,74272.3,8.47,3.41,-0.29,0,*6C
1499421697.71,25815,17.13,74266.5,8.49,3.33,-0.37,0,*69
1499421698.94,25816,17.13,74270.0,8.49,2.73,-1.05,0,*5F
1499421700.15,25817,17.13,74264.5,8.51,2.61,-1.21,0,*52
1499421701.41,25818,17.13,74266.3,8.51,2.43,-1.39,0,*54
1499421702.67,25819,17.13,74260.8,8.51,2.51,-1.35,0,*5A
1499421703.92,25820,17.19,74264.5,8.51,2.69,-0.97,0,*62
1499421705.18,25821,17.13,74262.8,8.55,2.43,-1.35,0,*56
1499421706.42,25822,17.13,74258.5,8.53,1.93,-1.87,0,*54
1499421707.67,25823,17.19,74266.0,8.53,1.25,-2.51,0,*50
1499421708.9,25824,17.13,74262.0,8.53,1.67,-2.11,0,*55
1499421710.13,25825,17.19,74260.3,8.51,3.11,-0.53,0,*61
1499421711.34,25826,17.13,74266.8,8.53,2.81,-0.77,0,*6E
1499421712.61,25827,17.13,74266.0,8.55,1.71,-2.03,0,*54
1499421713.84,25828,17.13,74266.0,8.55,2.43,-1.25,0,*5E
1499421715.07,25829,17.19,74264.8,8.55,3.03,-0.57,0,*6E
1499421716.27,25830,17.19,74260.8,8.55,3.25,-0.29,0,*6B
1499421717.5,25831,17.19,74252.3,8.59,2.73,-0.81,0,*66
1499421718.73,25832,17.19,74258.5,8.65,3.75,0.33,0,*49
1499421719.98,25833,17.13,74244.3,8.63,2.21,-1.39,0,*58
1499421721.2,25834,17.19,74250.8,8.65,2.43,-1.17,0,*51
1499421722.4,25835,17.19,74244.0,8.67,2.95,-0.57,0,*6C
1499421723.66,25836,17.19,74256.3,8.67,2.43,-1.13,0,*55
1499421724.85,25837,17.13,74256.3,8.69,2.35,-1.21,0,*5A
1499421726.06,25838,17.19,74258.5,8.69,1.85,-1.59,0,*52
1499421727.3,25839,17.19,74248.5,8.71,0.91,-2.83,0,*6A
1499421728.53,25840,17.19,74258.5,8.71,1.25,-2.43,0,*56
1499421729.74,25841,17.19,74250.0,8.69,0.91,-2.19,0,*6F
1499421730.98,25842,17.19,74248.3,8.69,2.01,-1.09,0,*55
1499421732.2,25843,17.19,74246.5,8.69,0.91,-2.23,0,*64
1499421733.43,25844,17.19,74256.8,8.69,0.55,-2.59,0,*66
1499421734.63,25845,17.13,74240.3,8.69,0.13,-2.95,0,*65
1499421735.87,25846,17.13,74238.0,8.67,0.55,-2.19,0,*6E
1499421737.07,25847,17.13,74246.8,8.69,0.75,-2.19,0,*63
1499421738.29,25848,17.19,74250.3,8.69,0.37,-2.59,0,*6E
1499421739.54,25849,17.19,74260.3,8.67,0.17,-2.75,0,*6D
1499421740.77,25850,17.13,74258.5,8.69,0.67,-2.07,0,*69
1499421742.03,25851,17.13,74256.5,8.67,0.63,-2.07,0,*62
1499421743.25,25852,17.19,74262.0,8.65,0.13,-2.59,0,*6F
1499421744.46,25853,17.19,74262.3,8.63,-0.41,-3.11,0,*4F
1499421745.73,25854,17.13,74258.5,8.63,1.37,-1.13,0,*55
1499421746.92,25855,17.19,74258.5,8.65,2.27,-0.15,0,*67
1499421748.14,25856,17.13,74258.5,8.69,2.47,0.17,0,*41
1499421749.37,25857,17.13,74266.0,8.69,3.03,0.67,0,*46
1499421750.61,25858,17.19,74274.0,8.71,1.17,-1.21,0,*59
1499421751.82,25859,17.19,74272.3,8.73,0.97,-1.47,0,*63
1499421753.04,25860,17.19,74274.8,8.73,0.37,-1.99,0,*60
1499421754.24,25861,17.19,74274.0,8.73,0.21,-2.23,0,*64
1499421755.47,25862,17.19,74270.0,8.71,0.71,-1.55,0,*62
1499421756.69,25863,17.19,74276.3,8.73,1.43,-0.89,0,*61
1499421757.9,25864,17.13,74260.3,8.73,1.93,-0.15,0,*6E
1499421759.13,25865,17.13,74272.3,8.75,1.33,-0.81,0,*6E
1499421760.37,25866,17.19,74272.5,8.77,1.93,-0.11,0,*6C
1499421761.61,25867,17.19,74266.5,8.81,1.37,-0.69,0,*65
1499421762.87,25868,17.19,74264.5,8.81,1.17,-0.93,0,*6D
1499421764.09,25869,17.19,74264.5,8.81,0.71,-1.33,0,*66
1499421765.35,25870,17.19,74264.8,8.81,0.91,-1.05,0,*65
1499421766.59,25871,17.19,74264.8,8.85,1.33,-0.61,0,*6A
1499421767.8,25872,17.19,74264.8,8.87,0.71,-1.13,0,*68
1499421769.03,25873,17.19,74270.8,8.85,0.43,-1.39,0,*62
1499421770.22,25874,17.19,74262.3,8.87,0.37,-1.55,0,*6E
1499421771.41,25875,17.13,74256.5,8.87,0.25,-1.51,0,*68
1499421772.64,25876,17.19,74264.5,8.87,-0.23,-1.95,0,*48
1499421773.87,25877,17.19,74254.8,8.85,-0.29,-2.03,0,*4D
1499421775.09,25878,17.19,74262.5,8.85,0.43,-1.35,0,*65
1499421776.29,25879,17.19,74260.3,8.85,0.43,-1.17,0,*64
1499421777.54,25880,17.19,74262.0,8.85,0.37,-1.35,0,*61
1499421778.74,25881,17.19,74266.8,8.87,1.09,-0.45,0,*68
1499421779.94,25882,17.19,74266.5,8.87,0.79,-0.81,0,*55
1499421781.18,25883,17.19,74264.8,8.87,-0.89,-2.51,0,*49
1499421782.38,25884,17.19,74264.0,8.87,-0.33,-1.83,0,*43
1499421783.63,25885,17.19,74274.0,8.85,1.55,0.37,0,*4F
1499421784.86,25886,17.19,74266.3,8.87,1.33,-0.23,0,*66
1499421786.05,25887,17.19,74266.3,8.87,0.17,-1.33,0,*60
1499421787.28,25888,17.19,74260.8,8.89,0.79,-0.45,0,*59
1499421788.47,25889,17.19,74264.8,8.91,0.67,-0.69,0,*50
1499421789.67,25890,17.19,74264.3,8.91,-0.33,-1.83,0,*41
1499421790.86,25891,17.19,74272.8,8.89,0.01,-1.33,0,*5E
1499421792.07,25892,17.19,74264.0,8.91,1.17,-0.03,0,*50
1499421793.25,25893,17.19,74260.8,8.91,1.05,-0.19,0,*69
1499421794.47,25894,17.19,74270.8,8.91,0.17,-1.05,0,*60
1499421795.68,25895,17.19,74272.3,8.95,1.71,0.67,0,*4C
1499421796.9,25896,17.19,74272.5,8.95,2.51,1.59,0,*72
1499421798.11,25897,17.19,74272.0,9.01,3.29,2.35,0,*78
1499421799.3,25898,17.19,74272.3,9.03,3.63,2.69,0,*72
1499421800.51,25899,17.19,74268.5,9.09,4.33,3.49,0,*78
1499421801.73,25900,17.19,74274.3,9.15,2.61,1.55,0,*7A
1499421802.91,25901,17.19,74264.5,9.17,1.83,1.01,0,*77
1499421804.13,25902,17.19,74270.8,9.17,2.47,1.55,0,*7E
1499421805.39,25903,17.19,74270.8,9.23,2.81,1.85,0,*7F
1499421806.62,25904,17.19,74276.0,9.25,2.13,1.17,0,*7E
1499421807.84,25905,17.19,74278.5,9.25,2.01,1.17,0,*7C
1499421809.09,25906,17.19,74268.5,9.31,1.21,0.33,0,*4C
1499421810.33,25907,17.19,74272.3,9.31,1.43,0.63,0,*4C
1499421811.59,25908,17.19,74278.5,9.31,1.37,0.71,0,*43
1499421812.81,25909,17.19,74274.0,9.31,0.51,-0.37,0,*5C
1499421814.05,25910,17.19,74272.3,9.31,0.87,0.13,0,*74
1499421815.25,25911,17.19,74268.8,9.33,0.91,0.05,0,*47
1499421816.44,25912,17.19,74270.8,9.33,0.97,0.25,0,*70
1499421817.68,25913,17.19,74274.5,9.33,1.13,0.51,0,*4F
1499421818.89,25914,17.19,74272.8,9.33,0.79,0.17,0,*77
1499421820.06,25915,17.19,74274.0,9.33,-0.07,-0.81,0,*40
1499421821.23,25916,17.19,74276.8,9.33,0.43,-0.19,0,*5F
1499421822.44,25917,17.19,74264.0,9.33,-0.81,-1.43,0,*43
1499421823.62,25918,17.19,74270.5,9.33,-0.11,-0.61,0,*74
1499421824.84,25919,17.19,74268.5,9.33,0.41,-0.23,0,*5B
1499421826.02,25920,17.19,74268.0,9.33,-0.19,-0.73,0,*74
1499421827.26,25921,17.19,74268.3,9.31,0.75,0.71,0,*7F
1499421828.48,25922,17.19,74270.8,9.33,2.73,2.43,0,*79
1499421829.66,25923,17.19,74264.5,9.37,2.95,2.61,0,*74
1499421830.88,25924,17.19,74258.3,9.39,2.99,2.73,0,*72
1499421832.11,25925,17.19,74252.8,9.43,1.47,1.13,0,*7B
1499421833.37,25926,17.19,74260.3,9.45,1.37,1.21,0,*78
1499421834.59,25927,17.19,74266.5,9.47,2.73,2.73,0,*7C
1499421835.82,25928,17.19,74268.5,9.49,3.29,3.23,0,*77
1499421837.04,25929,17.19,74274.3,9.57,4.45,4.59,0,*7E
1499421838.24,25930,17.19,74272.5,9.63,4.89,4.97,0,*73
1499421839.45,25931,17.19,74278.5,9.69,5.15,5.19,0,*7B
1499421840.66,25932,17.19,74272.8,9.73,4.85,5.07,0,*74
1499421841.85,25933,17.19,74276.5,9.83,5.29,5.55,0,*7A
1499421843.06,25934,17.19,74278.3,9.87,6.33,6.53,0,*74
1499421844.27,25935,17.19,74272.8,9.93,6.03,6.25,0,*72
1499421845.48,25936,17.19,74274.5,9.99,5.01,5.33,0,*7E
1499421846.67,25937,17.19,74272.0,10.05,5.67,5.99,0,*42
1499421847.88,25938,17.19,74270.0,10.11,4.89,5.15,0,*4D
1499421849.07,25939,17.19,74270.5,10.17,5.67,6.03,0,*4F
1499421850.3,25940,17.19,74270.5,10.23,5.05,5.29,0,*49
1499421851.51,25941,17.19,74274.3,10.27,4.81,5.15,0,*4E
1499421852.72,25942,17.19,74270.8,10.33,4.93,5.15,0,*4B
1499421853.95,25943,17.19,74262.3,10.35,3.41,3.63,0,*43
1499421855.2,25944,17.19,74268.8,10.35,2.81,3.11,0,*4C
1499421856.44,25945,17.19,74274.8,10.39,2.77,3.15,0,*4C
1499421857.68,25946,17.19,74264.3,10.39,3.11,3.49,0,*47
1499421858.92,25947,17.19,74268.5,10.39,3.11,3.37,0,*4F
1499421860.18,25948,17.19,74264.5,10.45,2.09,2.51,0,*42
1499421861.44,25949,17.19,74268.5,10.45,3.03,3.33,0,*4D
1499421862.7,25950,17.19,74268.3,10.45,3.15,3.67,0,*43
1499421863.94,25951,17.19,74274.0,10.47,3.67,4.01,0,*42
1499421865.2,25952,17.19,74270.3,10.49,2.51,2.89,0,*4D
1499421866.43,25953,17.19,74262.0,10.49,2.55,2.95,0,*45
1499421867.67,25954,17.19,74264.5,10.51,2.17,2.73,0,*45
1499421868.92,25955,17.19,74268.3,10.53,2.55,3.11,0,*45
1499421870.09,25956,17.19,74262.3,10.55,3.55,4.11,0,*46
1499421871.33,25957,17.19,74258.3,10.57,4.67,5.15,0,*46
1499421872.53,25958,17.19,74270.3,10.59,4.75,5.29,0,*4B
1499421873.71,25959,17.19,74272.5,10.63,4.85,5.45,0,*46
1499421874.89,25960,17.19,74260.8,10.67,4.07,4.57,0,*40
1499421876.12,25961,17.19,74258.0,10.71,4.01,4.49,0,*4F
1499421877.32,25962,17.19,74274.0,10.73,4.31,4.85,0,*4D
1499421878.55,25963,17.19,74280.8,10.75,5.11,5.81,0,*4C
1499421879.79,25964,17.19,74268.8,10.79,3.79,4.37,0,*43
1499421881.01,25965,17.19,74258.5,10.79,4.63,5.33,0,*4B
1499421882.22,25966,17.19,74262.0,10.85,4.63,5.15,0,*4F
1499421883.45,25967,17.19,74268.0,10.89,4.59,5.27,0,*4A
1499421884.62,25968,17.19,74268.8,10.93,4.81,5.45,0,*4F
1499421885.82,25969,17.19,74272.5,10.95,4.85,5.37,0,*49
1499421887.05,25970,17.19,74274.0,10.99,4.97,5.63,0,*4F
1499421888.27,25971,17.19,74268.5,11.01,4.27,4.75,0,*43
1499421889.49,25972,17.19,74268.8,11.03,4.37,4.85,0,*4C
1499421890.7,25973,17.19,74270.0,11.05,5.71,6.17,0,*41
1499421891.94,25974,17.19,74272.3,11.11,5.15,5.73,0,*40
1499421893.2,25975,17.19,74268.5,11.11,4.63,5.05,0,*40
1499421894.44,25976,17.19,74276.3,11.15,2.99,3.33,0,*47
1499421895.69,25977,17.19,74278.3,11.15,3.37,3.93,0,*49
1499421896.95,25978,17.19,74266.3,11.15,3.33,3.67,0,*49
1499421898.16,25979,17.19,74262.5,11.13,2.35,2.73,0,*4D
1499421899.43,25980,17.19,74268.8,11.15,2.13,2.43,0,*4A
1499421900.65,25981,17.19,74268.0,11.07,0.63,0.97,0,*46
1499421901.88,25982,17.19,74268.8,11.05,0.59,0.87,0,*4F
1499421903.14,25983,17.19,74272.5,11.03,1.09,1.43,0,*45
1499421904.38,25984,17.19,74272.8,11.03,2.55,2.99,0,*4C
1499421905.63,25985,17.19,74278.3,10.99,2.81,3.33,0,*47
1499421906.87,25986,17.19,74280.8,11.01,2.47,2.81,0,*46
1499421908.1,25987,17.19,74282.0,10.99,2.91,3.33,0,*44
1499421909.31,25988,17.19,74276.5,10.97,0.47,0.63,0,*4A
1499421910.53,25989,17.19,74286.5,10.95,0.09,0.25,0,*71
1499421911.77,25990,17.19,74280.8,10.91,0.59,0.83,0,*44
1499421913.0,25991,17.19,74274.3,10.85,1.29,1.55,0,*4C
1499421914.23,25992,17.19,74268.3,10.83,0.13,0.13,0,*42
1499421915.41,25993,17.19,74268.8,10.81,-0.33,-0.15,0,*45
1499421916.61,25994,17.19,74282.5,10.77,0.97,1.13,0,*72
1499421917.85,25995,17.19,74272.0,10.75,0.75,0.87,0,*41
1499421919.03,25996,17.19,74272.0,10.73,-0.37,-0.33,0,*4D
1499421920.22,25997,17.19,74268.8,10.69,-0.03,0.17,0,*5B
1499421921.41,25998,17.19,74272.0,10.67,-0.41,-0.41,0,*42
1499421922.61,25999,17.19,74272.0,10.61,-0.49,-0.45,0,*49
1499421923.82,26000,17.19,74270.3,10.59,0.17,0.25,0,*45
1499421925.04,26001,17.19,74272.5,10.55,0.41,0.41,0,*49
1499421926.25,26002,17.19,74278.0,10.51,0.37,0.51,0,*4E
1499421927.42,26003,17.19,74268.0,10.51,0.43,0.43,0,*4F
1499421928.61,26004,17.19,74268.5,10.47,0.43,0.41,0,*4D
1499421929.8,26005,17.19,74272.8,10.41,-0.61,-0.61,0,*48
1499421931.06,26006,17.19,74260.5,10.41,-0.23,-0.23,0,*4B
1499421932.27,26007,17.19,74268.3,10.37,-0.73,-0.81,0,*46
1499421933.5,26008,17.19,74274.5,10.33,-0.23,-0.23,0,*40
1499421934.69,26009,17.19,74274.3,10.33,0.21,-0.03,0,*5C
1499421935.9,26010,17.19,74276.0,10.29,-0.27,-0.37,0,*43
1499421937.13,26011,17.19,74282.0,10.29,0.87,0.83,0,*47
1499421938.34,26012,17.19,74278.8,10.25,0.95,0.79,0,*4E
1499421939.59,26013,17.19,74268.8,10.27,0.79,0.63,0,*44
1499421940.82,26014,17.19,74274.3,10.21,-0.27,-0.27,0,*4E
1499421942.04,26015,17.19,74278.3,10.21,0.67,0.51,0,*4A
1499421943.26,26016,17.19,74268.5,10.15,0.25,0.01,0,*7D
1499421944.44,26017,17.19,74270.8,10.13,-0.57,-0.81,0,*47
1499421945.69,26018,17.19,74268.5,10.11,-0.73,-1.05,0,*71
1499421946.91,26019,17.19,74268.8,10.07,-0.15,-0.49,0,*4E
1499421948.12,26020,17.19,74272.8,10.07,0.33,0.01,0,*7C
1499421949.33,26021,17.19,74284.3,10.05,1.63,1.41,0,*4E
1499421950.56,26022,17.19,74278.3,10.03,1.51,1.33,0,*4F
1499421951.76,26023,17.19,74286.0,10.03,1.41,1.21,0,*4C
1499421952.99,26024,17.19,74282.3,10.03,1.43,1.13,0,*48
1499421954.19,26025,17.19,74278.5,10.03,1.05,0.59,0,*74
1499421955.43,26026,17.19,74282.5,10.01,0.51,0.13,0,*4B
1499421956.65,26027,17.19,74278.0,9.99,0.59,0.21,0,*7A
1499421957.84,26028,17.19,74280.0,9.99,0.37,-0.03,0,*60
1499421959.05,26029,17.25,74282.3,9.93,0.47,0.09,0,*4B
1499421960.24,26030,17.19,74280.3,9.93,0.09,-0.29,0,*66
1499421961.49,26031,17.19,74284.5,9.89,0.91,0.41,0,*7E
1499421962.74,26032,17.19,74278.0,9.89,0.79,0.29,0,*75
1499421963.94,26033,17.19,74272.0,9.87,0.25,-0.33,0,*55
1499421965.13,26034,17.19,74260.5,9.85,-0.03,-0.61,0,*4E
1499421966.33,26035,17.19,74270.5,9.85,0.05,-0.53,0,*65
1499421967.52,26036,17.19,74270.0,9.81,-0.07,-0.65,0,*48
1499421968.72,26037,17.19,74268.5,9.79,0.29,-0.11,0,*5C
1499421969.91,26038,17.19,74268.5,9.79,0.63,0.01,0,*41
1499421971.14,26039,17.19,74274.0,9.77,0.71,0.13,0,*7E
1499421972.39,26040,17.19,74272.3,9.73,0.95,0.21,0,*7F
1499421973.61,26041,17.19,74272.5,9.73,0.55,-0.03,0,*6F
1499421974.83,26042,17.19,74274.3,9.71,0.95,0.21,0,*7F
1499421976.02,26043,17.19,74274.0,9.71,0.67,-0.15,0,*59
1499421977.23,26044,17.19,74276.5,9.69,0.79,0.01,0,*40
1499421978.46,26045,17.19,74278.5,9.69,0.79,-0.07,0,*6A
1499421979.65,26046,17.19,74274.0,9.67,0.91,0.09,0,*42
1499421980.9,26047,17.25,74272.5,9.65,1.43,0.63,0,*43
1499421982.14,26048,17.19,74270.3,9.65,0.79,0.13,0,*73
1499421983.34,26049,17.19,74266.8,9.63,0.75,-0.15,0,*53
1499421984.57,26050,17.19,74274.0,9.65,0.71,-0.11,0,*5D
1499421985.74,26051,17.19,74270.3,9.59,0.05,-0.77,0,*60
1499421986.97,26052,17.19,74270.5,9.61,0.71,-0.19,0,*53
1499421988.16,26053,17.19,74274.0,9.59,0.95,0.05,0,*43
1499421989.37,26054,17.19,74274.8,9.59,0.79,-0.19,0,*56
1499421990.58,26055,17.19,74274.3,9.55,0.59,-0.27,0,*54
1499421991.77,26056,17.25,74276.5,9.55,1.01,0.13,0,*41
1499421992.99,26057,17.19,74278.8,9.55,0.63,-0.27,0,*5F
1499421994.2,26058,17.19,74274.3,9.53,0.63,-0.29,0,*58
1499421995.42,26059,17.19,74268.8,9.53,0.75,-0.15,0,*51
1499421996.64,26060,17.19,74270.3,9.49,0.67,-0.29,0,*5C
1499421997.83,26061,17.25,74274.5,9.49,1.01,0.09,0,*73
1499421999.06,26062,17.19,74278.8,9.49,0.79,-0.07,0,*6D
1499422000.25,26063,17.19,74272.5,9.47,0.17,-0.81,0,*54
1499422001.47,26064,17.19,74268.0,9.45,0.47,-0.49,0,*50
1499422002.71,26065,17.19,74256.5,9.45,-0.23,-1.21,0,*41
1499422003.94,26066,17.25,74270.0,9.41,-0.03,-1.09,0,*7E
1499422005.17,26067,17.19,74270.0,9.41,-0.29,-1.35,0,*48
1499422006.37,26068,17.19,74268.8,9.37,-0.07,-1.13,0,*7E
1499422007.56,26069,17.19,74278.3,9.37,0.71,-0.19,0,*58
1499422008.77,26070,17.19,74274.3,9.35,0.67,-0.29,0,*56
1499422010.01,26071,17.19,74272.3,9.35,0.29,-0.85,0,*5B
1499422011.2,26072,17.19,74270.8,9.33,0.29,-0.81,0,*5A
1499422012.4,26073,17.19,74274.5,9.33,0.41,-0.57,0,*5E
1499422013.62,26074,17.25,74282.8,9.31,1.17,0.09,0,*7F
1499422014.84,26075,17.19,74276.5,9.31,0.25,-0.77,0,*5A
1499422016.05,26076,17.19,74278.8,9.27,1.01,-0.19,0,*61
1499422017.3,26077,17.25,74278.5,9.27,0.83,-0.27,0,*56
1499422018.5,26078,17.19,74274.5,9.27,1.01,-0.03,0,*54
1499422019.76,26079,17.19,74264.5,9.27,1.55,0.47,0,*49
1499422020.99,26080,17.25,74274.3,9.27,1.17,-0.07,0,*50
1499422022.19,26081,17.25,74274.8,9.25,0.71,-0.45,0,*54
1499422023.38,26082,17.19,74270.8,9.25,0.47,-0.57,0,*51
1499422024.6,26083,17.25,74266.3,9.23,0.41,-0.69,0,*5D
1499422025.82,26084,17.19,74266.3,9.23,0.41,-0.73,0,*51
1499422027.06,26085,17.25,74270.3,9.23,0.41,-0.85,0,*59
1499422028.26,26086,17.25,74262.0,9.21,0.59,-0.61,0,*5B
1499422029.47,26087,17.19,74264.3,9.19,0.59,-0.61,0,*51
1499422030.7,26088,17.19,74260.8,9.19,0.47,-0.77,0,*56
1499422031.92,26089,17.25,74270.0,9.19,0.51,-0.65,0,*53
1499422033.15,26090,17.25,74266.3,9.15,0.25,-0.93,0,*5D
1499422034.39,26091,17.19,74258.8,9.15,0.25,-0.93,0,*5C
1499422035.61,26092,17.19,74258.0,9.15,0.37,-0.77,0,*56
1499422036.81,26093,17.25,74258.0,9.13,0.87,-0.29,0,*51
1499422038.0,26094,17.25,74266.3,9.13,0.67,-0.57,0,*51
1499422039.25,26095,17.19,74264.3,9.11,0.37,-0.85,0,*58
1499422040.47,26096,17.25,74268.0,9.11,0.63,-0.45,0,*56
1499422041.67,26097,17.25,74266.8,9.13,0.63,-0.41,0,*51
1499422042.88,26098,17.19,74266.0,9.13,0.79,-0.45,0,*51
1499422044.08,26099,17.19,74264.0,9.09,0.83,-0.33,0,*5F
1499422045.27,26100,17.25,74264.8,9.09,0.97,-0.15,0,*5F
1499422046.47,26101,17.19,74270.8,9.09,1.25,0.01,0,*7E
1499422047.7,26102,17.19,74268.5,9.09,1.33,0.25,0,*4C
1499422048.93,26103,17.25,74274.8,9.09,1.33,0.25,0,*4D
1499422050.15,26104,17.25,74274.0,9.09,2.05,0.95,0,*47
1499422051.37,26105,17.25,74274.8,9.09,1.67,0.51,0,*49
1499422052.6,26106,17.25,74282.0,9.09,1.47,0.41,0,*49
1499422053.82,26107,17.19,74284.5,9.09,2.05,0.95,0,*44
1499422055.04,26108,17.19,74280.5,9.09,1.93,0.87,0,*44
1499422056.29,26109,17.19,74274.8,9.11,1.59,0.51,0,*41
1499422057.5,26110,17.25,74272.8,9.13,2.31,1.29,0,*78
1499422058.73,26111,17.19,74274.5,9.11,2.05,1.01,0,*76
1499422059.95,26112,17.25,74280.3,9.13,2.13,0.91,0,*48
1499422061.15,26113,17.25,74280.3,9.13,1.75,0.63,0,*47
1499422062.39,26114,17.25,74276.5,9.13,2.01,0.91,0,*4D
1499422063.63,26115,17.19,74274.8,9.11,1.67,0.63,0,*40
1499422064.88,26116,17.25,74278.3,9.15,1.55,0.37,0,*47
1499422066.1,26117,17.19,74274.3,9.15,1.41,0.17,0,*41
1499422067.32,26118,17.19,74274.0,9.15,1.75,0.67,0,*4E
1499422068.57,26119,17.19,74278.8,9.15,1.89,0.91,0,*45
1499422069.76,26120,17.25,74274.0,9.13,1.05,-0.11,0,*68
1499422070.96,26121,17.25,74272.8,9.13,1.75,0.55,0,*43
1499422072.17,26122,17.19,74268.3,9.13,1.37,0.05,0,*73
1499422073.38,26123,17.19,74268.0,9.13,1.29,0.05,0,*7D
1499422074.58,26124,17.19,74274.5,9.13,1.79,0.79,0,*44
1499422075.81,26125,17.25,74274.0,9.13,1.37,0.13,0,*43
1499422077.03,26126,17.25,74272.0,9.13,1.47,0.41,0,*40
1499422078.28,26127,17.25,74268.3,9.11,1.43,0.47,0,*41
1499422079.51,26128,17.25,74270.0,9.11,1.75,0.75,0,*4A
1499422080.77,26129,17.25,74266.5,9.11,1.55,0.51,0,*4F
1499422081.97,26130,17.25,74268.3,9.13,1.79,0.79,0,*41
1499422083.21,26131,17.25,74268.8,9.11,1.59,0.67,0,*4F
1499422084.44,26132,17.19,74278.0,9.13,1.59,0.55,0,*4F
1499422085.65,26133,17.25,74274.3,9.11,1.01,-0.03,0,*5F
1499422086.89,26134,17.25,74270.3,9.11,1.67,0.63,0,*43
1499422088.15,26135,17.19,74272.3,9.11,1.55,0.47,0,*45
1499422089.33,26136,17.25,74276.5,9.09,1.01,0.09,0,*74
1499422090.55,26137,17.19,74268.0,9.05,0.95,-0.15,0,*55
1499422091.78,26138,17.25,74266.8,9.09,1.13,0.17,0,*46
1499422093.0,26139,17.19,74270.8,9.09,0.75,-0.27,0,*58
1499422094.22,26140,17.19,74268.8,9.05,0.25,-0.69,0,*55
1499422095.43,26141,17.25,74272.5,9.05,0.71,-0.07,0,*6D
1499422096.66,26142,17.19,74272.3,9.03,1.37,0.51,0,*45
1499422097.88,26143,17.25,74268.3,9.03,1.29,0.41,0,*4A
1499422099.09,26144,17.19,74272.5,9.03,0.87,-0.11,0,*50
1499422100.31,26145,17.19,74260.5,9.01,0.79,0.01,0,*4E
1499422101.55,26146,17.25,74266.5,9.01,1.47,0.63,0,*45
1499422102.8,26147,17.25,74268.5,9.01,1.13,0.33,0,*40
1499422104.06,26148,17.25,74272.3,9.01,1.25,0.51,0,*4E
1499422105.28,26149,17.25,74270.5,9.01,1.41,0.75,0,*4B
1499422106.51,26150,17.25,74272.0,9.01,1.79,1.13,0,*79
1499422107.73,26151,17.19,74272.3,9.01,1.79,1.13,0,*78
1499422108.92,26152,17.25,74268.5,9.03,2.09,1.41,0,*7A
1499422110.14,26153,17.25,74268.8,9.03,1.63,0.95,0,*4C
1499422111.35,26154,17.25,74272.5,9.03,1.51,0.79,0,*48
1499422112.57,26155,17.25,74278.3,9.03,1.47,0.79,0,*4E
1499422113.83,26156,17.19,74276.0,9.01,1.37,0.91,0,*4E
1499422115.07,26157,17.19,74270.3,9.01,2.01,1.47,0,*73
1499422116.27,26158,17.25,74278.5,9.03,1.63,1.05,0,*7F
1499422117.47,26159,17.25,74278.0,9.03,1.59,1.05,0,*77
1499422118.69,26160,17.25,74276.3,9.03,1.63,1.17,0,*77
1499422119.93,26161,17.25,74276.5,9.05,1.63,1.17,0,*70
1499422121.16,26162,17.19,74268.0,9.03,2.25,1.85,0,*7F
1499422122.35,26163,17.25,74276.0,9.03,2.35,1.97,0,*7C
1499422123.57,26164,17.25,74272.8,9.05,2.13,1.75,0,*75